Location: Lanoux
(43.1180°N, 1.4255°E)
Time: 03:52:05
(UTC+00:00)

Cosmos 2322 Rocket - Pass Details

Date: 13 December 2025
Orbit: 831 x 851 km, 71.0° (Epoch: 12 January)

Event Time Altitude Azimuth Distance (km) Brightness Sun altitude
Rises 18:34:53 0° 174° (S) 3,388 5.4 -23.8°
Reaches altitude 10° 18:37:33 10° 164° (SSE) 2,461 4.5 -24.3°
Enters shadow 18:39:05 17° 154° (SSE) 1,993 4.0 -24.5°
